Location: *
(51.5000°N, 0.1100°W)
Time: 14:03:59
(UTC+00:00)

IDEFIX/ARIANE 42P - Pass Details

Date: 08 August 2024
Orbit: 782 x 799 km, 98.5° (Epoch: 15 September)

Event Time Altitude Azimuth Distance (km) Brightness Sun altitude
Rises 03:37:51 0° 6° (N) 3,285 6.5 -8.3°
Reaches altitude 10° 03:40:48 10° 348° (NNW) 2,352 5.4 -8.0°
Maximum altitude 03:44:16 19° 306° (NW) 1,822 4.3 -7.5°
Drops below altitude 10° 03:47:45 10° 263° (W) 2,346 4.5 -7.1°
Enters shadow 03:48:51 - 255° (WSW) 2,663 4.7 -7.0°
